Time,TemperatureF,DewpointF,PressureIn,WindDirection,WindDirectionDegrees,WindSpeedMPH,WindSpeedGustMPH,Humidity,HourlyPrecipIn,Conditions,Clouds,dailyrainin,SoftwareType,DateUTC
2013-02-07 00:00:00,0.0,37.4,29.09,SSE,157,2.0,5.0,0,0.00,RA,OVC,-99.99,Misterhouse,2013-02-07 06:00:00,
2013-02-07 00:30:00,0.0,37.4,29.09,South,180,4.0,6.0,0,0.00,RA,OVC,-99.99,Misterhouse,2013-02-07 06:30:00,
2013-02-07 01:00:00,0.0,37.4,29.09,South,180,2.0,5.0,0,0.00,RA,OVC,-99.99,Misterhouse,2013-02-07 07:00:00,
2013-02-07 01:30:00,0.0,37.4,29.06,SSW,202,4.0,6.0,0,0.00,RA,OVC,-99.99,Misterhouse,2013-02-07 07:30:00,
2013-02-07 02:00:00,0.0,37.4,29.06,SSE,157,2.0,4.0,0,0.00,RA,OVC,-99.99,Misterhouse,2013-02-07 08:00:00,
2013-02-07 02:30:00,0.0,37.4,29.06,SSE,157,4.0,4.0,0,0.00,RA,OVC,-99.99,Misterhouse,2013-02-07 08:30:00,
2013-02-07 03:00:00,0.0,37.4,29.06,ESE,112,2.0,4.0,0,0.00,RA,OVC,-99.99,Misterhouse,2013-02-07 09:00:00,
2013-02-07 03:30:00,0.0,37.4,29.06,ESE,112,2.0,5.0,0,0.00,RA,OVC,-99.99,Misterhouse,2013-02-07 09:30:00,
2013-02-07 04:00:00,0.0,37.4,29.06,WSW,247,2.0,4.0,0,0.00,RA,OVC,-99.99,Misterhouse,2013-02-07 10:00:00,
2013-02-07 04:30:00,0.0,37.4,29.06,WSW,247,2.0,4.0,0,0.00,RA,OVC,-99.99,Misterhouse,2013-02-07 10:30:00,
2013-02-07 05:00:00,0.0,37.4,29.06,WSW,247,2.0,4.0,0,0.00,RA,OVC,-99.99,Misterhouse,2013-02-07 11:00:00,
2013-02-07 05:30:00,0.0,37.4,29.03,WSW,247,2.0,4.0,0,0.00,RA,OVC,-99.99,Misterhouse,2013-02-07 11:30:00,
2013-02-07 06:00:00,0.0,37.4,29.03,SE,135,2.0,3.0,0,0.00,RA,OVC,-99.99,Misterhouse,2013-02-07 12:00:00,
2013-02-07 06:30:00,0.0,37.4,29.03,SE,135,2.0,3.0,0,0.00,RA,OVC,-99.99,Misterhouse,2013-02-07 12:30:00,
2013-02-07 07:00:00,0.0,39.2,29.03,SE,135,2.0,3.0,0,0.00,RA,OVC,-99.99,Misterhouse,2013-02-07 13:00:00,
2013-02-07 07:30:00,0.0,39.2,29.06,SE,135,2.0,3.0,0,0.00,RA,OVC,-99.99,Misterhouse,2013-02-07 13:30:00,
2013-02-07 08:00:00,0.0,41.0,29.06,SE,135,2.0,3.0,0,0.00,RA,OVC,-99.99,Misterhouse,2013-02-07 14:00:00,
2013-02-07 08:30:00,0.0,39.2,29.06,SE,135,2.0,3.0,0,0.00,RA,OVC,-99.99,Misterhouse,2013-02-07 14:30:00,
2013-02-07 09:00:00,0.0,35.6,29.06,SE,135,2.0,3.0,0,0.00,RA,OVC,-99.99,Misterhouse,2013-02-07 15:00:00,
2013-02-07 09:30:00,0.0,35.6,29.06,SE,135,2.0,3.0,0,0.00,RA,OVC,-99.99,Misterhouse,2013-02-07 15:30:00,
2013-02-07 10:00:00,0.0,35.6,29.06,SE,135,2.0,3.0,0,0.00,RA,OVC,-99.99,Misterhouse,2013-02-07 16:00:00,
2013-02-07 10:30:00,0.0,35.6,29.06,SE,135,2.0,3.0,0,0.00,RA,OVC,-99.99,Misterhouse,2013-02-07 16:30:00,
2013-02-07 11:00:00,0.0,35.6,29.06,SE,135,2.0,3.0,0,0.00,RA,OVC,-99.99,Misterhouse,2013-02-07 17:00:00,
2013-02-07 11:30:00,0.0,35.6,29.06,SE,135,2.0,3.0,0,0.00,RA,OVC,-99.99,Misterhouse,2013-02-07 17:30:00,
2013-02-07 12:00:00,0.0,33.8,29.03,ESE,112,2.0,4.0,0,0.00,RA,OVC,-99.99,Misterhouse,2013-02-07 18:00:00,
2013-02-07 12:30:00,0.0,33.8,29.03,East,90,2.0,5.0,0,0.00,RA,OVC,-99.99,Misterhouse,2013-02-07 18:30:00,
2013-02-07 13:00:00,0.0,35.6,29.03,East,90,2.0,5.0,0,0.00,RA,OVC,-99.99,Misterhouse,2013-02-07 19:00:00,
2013-02-07 13:30:00,0.0,35.6,29.03,NNE,22,3.0,3.0,0,0.00,RA,OVC,-99.99,Misterhouse,2013-02-07 19:30:00,
2013-02-07 14:00:00,0.0,39.2,29.03,North,0,4.0,4.0,0,0.00,RA,OVC,-99.99,Misterhouse,2013-02-07 20:00:00,
2013-02-07 14:30:00,0.0,37.4,29.03,North,0,3.0,5.0,0,0.00,RA,OVC,-99.99,Misterhouse,2013-02-07 20:30:00,
2013-02-07 15:00:00,0.0,37.4,29.03,North,0,4.0,6.0,0,0.00,RA,OVC,-99.99,Misterhouse,2013-02-07 21:00:00,
2013-02-07 15:30:00,0.0,39.2,29.03,NNE,22,2.0,6.0,0,0.00,RA,OVC,-99.99,Misterhouse,2013-02-07 21:30:00,
2013-02-07 16:00:00,0.0,39.2,29.06,NNW,337,4.0,7.0,0,0.00,RA,OVC,-99.99,Misterhouse,2013-02-07 22:00:00,
2013-02-07 16:30:00,0.0,41.0,29.06,North,0,5.0,10.0,0,0.00,RA,OVC,-99.99,Misterhouse,2013-02-07 22:30:00,
2013-02-07 17:00:00,0.0,39.2,29.09,NNE,22,7.0,9.0,0,0.00,BC,SCT,-99.99,Misterhouse,2013-02-07 23:00:00,
2013-02-07 17:30:00,0.0,37.4,29.09,North,0,3.0,9.0,0,0.00,BC,SCT,-99.99,Misterhouse,2013-02-07 23:30:00,
2013-02-07 18:00:00,0.0,35.6,29.12,NW,315,7.0,10.0,0,0.00,BC,SCT,-99.99,Misterhouse,2013-02-08 00:00:00,
2013-02-07 18:30:00,0.0,35.6,29.15,North,0,7.0,15.0,0,0.00,BC,SCT,-99.99,Misterhouse,2013-02-08 00:30:00,
2013-02-07 19:00:00,0.0,35.6,29.15,NW,315,5.0,12.0,0,0.00,BC,SCT,-99.99,Misterhouse,2013-02-08 01:00:00,
2013-02-07 19:30:00,0.0,35.6,29.18,North,0,7.0,11.0,0,0.00,MI,SKC,-99.99,Misterhouse,2013-02-08 01:30:00,
2013-02-07 20:00:00,0.0,35.6,29.18,WNW,292,5.0,11.0,0,0.00,MI,SKC,-99.99,Misterhouse,2013-02-08 02:00:00,
2013-02-07 20:30:00,0.0,35.6,29.21,NNW,337,5.0,12.0,0,0.00,MI,SKC,-99.99,Misterhouse,2013-02-08 02:30:00,
2013-02-07 21:00:00,0.0,35.6,29.21,North,0,5.0,11.0,0,0.00,MI,SKC,-99.99,Misterhouse,2013-02-08 03:00:00,
2013-02-07 21:30:00,0.0,37.4,29.21,NNE,22,6.0,10.0,0,0.00,MI,SKC,-99.99,Misterhouse,2013-02-08 03:30:00,
2013-02-07 22:00:00,0.0,39.2,29.21,North,0,6.0,11.0,0,0.00,MI,SKC,-99.99,Misterhouse,2013-02-08 04:00:00,
2013-02-07 22:30:00,0.0,37.4,29.23,NNW,337,8.0,16.0,0,0.00,MI,SKC,-99.99,Misterhouse,2013-02-08 04:30:00,
2013-02-07 23:00:00,0.0,39.2,29.23,North,0,6.0,11.0,0,0.00,MI,SKC,-99.99,Misterhouse,2013-02-08 05:00:00,
2013-02-07 23:30:00,0.0,39.2,29.23,NNE,22,4.0,12.0,0,0.00,MI,SKC,-99.99,Misterhouse,2013-02-08 05:30:00,